Date String (YYYY-MM-DD hh:mm:ss) UTC,Instrument flags,Ambient pressure (hPa),Sample flow (lpm),Bypass flow (lpm),Sample temperature (°C),Ambient temperature (°C),ASC tube jacket temperature (°C),LED temperature (°C),Box temperature (°C),Sample RH (%),Span deviation,Mass concentration (μg/m³),Mass concentration (μg/m³),Mass concentration (μg/m³)
DateTimeUTC,F1_M11,P_M11,Q1_M11,Q2_M11,T1_M11,T2_M11,T3_M11,T4_M11,T5_M11,U1_M11,ZSPAN_M11,X0_M11,X2_M11,X1_M11
2021-09-22 20:00:00,,0832.6,5.01,0.00,29.5,28.0,00.0,38.6,31.3,10.2,0000.0,0009.28,0002.83,0001.90
2021-09-22 20:01:00,,0832.6,4.99,0.00,29.5,28.2,00.0,38.6,31.3,10.2,0000.0,0010.19,0002.90,0001.89
2021-09-22 20:02:00,,0832.6,4.99,0.00,29.6,28.4,00.0,38.6,31.4,10.1,0000.0,0009.92,0002.96,0001.89
2021-09-22 20:03:00,,0832.6,5.00,0.00,29.6,28.6,00.0,38.6,31.5,10.1,0000.0,0009.64,0003.02,0001.88
2021-09-22 20:04:00,,0832.6,5.01,0.00,29.7,28.8,00.0,38.6,31.5,10.0,0000.0,0010.02,0002.98,0001.85
2021-09-22 20:05:00,,0832.6,5.01,0.00,29.7,28.9,00.0,38.6,31.6,10.1,0000.0,0011.10,0002.96,0001.83
2021-09-22 20:06:00,,0832.5,5.00,0.00,29.8,29.0,00.0,38.7,31.6,09.9,0000.0,0010.88,0002.93,0001.82
2021-09-22 20:07:00,,0832.5,4.99,0.00,29.8,29.1,00.0,38.7,31.7,10.0,0000.0,0010.67,0002.91,0001.81
2021-09-22 20:08:00,,0832.4,5.01,0.00,29.9,29.1,00.0,38.7,31.7,10.2,0000.0,0010.48,0002.89,0001.80
2021-09-22 20:09:00,,0832.4,5.00,0.00,29.8,27.6,00.0,38.7,31.3,10.1,0000.0,0010.14,0002.84,0001.80
2021-09-22 20:10:00,,0832.4,5.00,0.00,29.6,25.9,00.0,38.7,30.8,10.0,0000.0,0010.02,0002.81,0001.79
2021-09-22 20:11:00,,0832.3,5.01,0.00,29.5,26.0,00.0,38.7,30.8,09.8,0000.0,0010.01,0002.79,0001.78
2021-09-22 20:12:00,,0832.3,4.99,0.00,29.4,26.4,00.0,38.6,30.9,10.1,0000.0,0009.32,0002.70,0001.76
2021-09-22 20:13:00,,0832.3,5.00,0.00,29.4,26.9,00.0,38.6,31.0,10.5,0000.0,0009.67,0002.62,0001.74
2021-09-22 20:14:00,,0832.2,4.99,0.00,29.4,27.3,00.0,38.6,31.1,10.8,0000.0,0009.58,0002.54,0001.75
2021-09-22 20:15:00,,0832.2,5.01,0.00,29.4,27.7,00.0,38.5,31.2,11.4,0000.0,0009.74,0002.55,0001.78
2021-09-22 20:16:00,,0832.2,4.99,0.00,29.5,28.0,00.0,38.5,31.2,10.6,0000.0,0009.55,0002.58,0001.80
2021-09-22 20:17:00,,0832.2,4.99,0.00,29.5,28.2,00.0,38.6,31.3,10.5,0000.0,0009.78,0002.64,0001.83
2021-09-22 20:18:00,,0832.2,5.00,0.00,29.5,28.4,00.0,38.6,31.4,10.5,0000.0,0009.96,0002.68,0001.85
2021-09-22 20:19:00,,0832.2,5.00,0.00,29.6,28.6,00.0,38.6,31.4,10.5,0000.0,0009.90,0002.70,0001.87
2021-09-22 20:20:00,,0832.1,5.00,0.00,29.6,28.7,00.0,38.6,31.5,10.7,0000.0,0009.59,0002.74,0001.89
2021-09-22 20:21:00,,0832.1,5.02,0.00,29.7,28.9,00.0,38.6,31.6,10.7,0000.0,0009.68,0002.76,0001.91
2021-09-22 20:22:00,,0832.1,4.99,0.00,29.7,29.0,00.0,38.7,31.6,10.3,0000.0,0010.15,0002.78,0001.93
2021-09-22 20:23:00,,0832.1,5.01,0.00,29.8,29.1,00.0,38.7,31.7,10.1,0000.0,0010.10,0002.80,0001.95
2021-09-22 20:24:00,,0832.1,5.00,0.00,29.8,28.5,00.0,38.7,31.5,10.2,0000.0,0009.59,0002.84,0001.97
2021-09-22 20:25:00,,0832.1,5.01,0.00,29.7,26.5,00.0,38.7,31.0,10.5,0000.0,0010.47,0002.88,0001.97
2021-09-22 20:26:00,,0832.1,5.00,0.00,29.5,25.8,00.0,38.7,30.8,10.8,0000.0,0010.42,0002.86,0001.96
2021-09-22 20:27:00,,0832.1,4.99,0.00,29.5,26.2,00.0,38.6,30.9,10.9,0000.0,0009.81,0002.83,0001.95
2021-09-22 20:28:00,,0832.1,5.01,0.00,29.4,26.7,00.0,38.6,31.0,10.5,0000.0,0009.85,0002.76,0001.93
2021-09-22 20:29:00,,0832.1,4.99,0.00,29.4,27.1,00.0,38.6,31.1,10.3,0000.0,0010.19,0002.73,0001.90
2021-09-22 20:30:00,,0832.1,5.01,0.00,29.4,27.5,00.0,38.5,31.1,10.8,0000.0,0010.47,0002.73,0001.89
2021-09-22 20:31:00,,0832.0,5.00,0.00,29.5,27.9,00.0,38.5,31.2,10.8,0000.0,0010.61,0002.71,0001.87
2021-09-22 20:32:00,,0832.0,5.00,0.00,29.5,28.1,00.0,38.5,31.3,10.9,0000.0,0010.28,0002.67,0001.86
2021-09-22 20:33:00,,0831.9,5.00,0.00,29.5,28.3,00.0,38.6,31.4,11.0,0000.0,0011.03,0002.67,0001.86
2021-09-22 20:34:00,,0831.9,5.00,0.00,29.6,28.5,00.0,38.6,31.4,10.8,0000.0,0012.05,0002.68,0001.85
2021-09-22 20:35:00,,0832.0,5.02,0.00,29.6,28.7,00.0,38.6,31.5,10.4,0000.0,0012.06,0002.66,0001.85
2021-09-22 20:36:00,,0832.0,4.98,0.00,29.7,28.8,00.0,38.6,31.6,10.5,0000.0,0011.20,0002.58,0001.84
2021-09-22 20:37:00,,0832.0,5.00,0.00,29.7,28.9,00.0,38.6,31.6,10.6,0000.0,0010.64,0002.65,0001.84
2021-09-22 20:38:00,,0832.0,5.00,0.00,29.8,29.1,00.0,38.7,31.7,10.6,0000.0,0010.13,0002.65,0001.85
2021-09-22 20:39:00,,0832.0,5.00,0.00,29.8,28.4,00.0,38.7,31.5,10.4,0000.0,0009.69,0002.71,0001.87
2021-09-22 20:40:00,,0831.9,5.00,0.00,29.6,26.3,00.0,38.7,30.9,10.6,0000.0,0009.06,0002.72,0001.89
2021-09-22 20:41:00,,0831.8,5.00,0.00,29.5,25.8,00.0,38.6,30.7,10.8,0000.0,0008.89,0002.68,0001.90
2021-09-22 20:42:00,,0831.9,5.00,0.00,29.4,26.2,00.0,38.6,30.9,11.1,0000.0,0008.94,0002.62,0001.91
2021-09-22 20:43:00,,0832.0,5.00,0.00,29.4,26.7,00.0,38.6,30.9,11.1,0000.0,0008.95,0002.63,0001.89
2021-09-22 20:44:00,,0832.0,5.01,0.00,29.4,27.1,00.0,38.5,31.0,10.5,0000.0,0008.56,0002.65,0001.88
2021-09-22 20:45:00,,0832.0,4.99,0.00,29.4,27.5,00.0,38.5,31.1,10.3,0000.0,0008.51,0002.67,0001.88
2021-09-22 20:46:00,,0832.0,5.01,0.00,29.4,27.9,00.0,38.5,31.2,10.2,0000.0,0009.32,0002.69,0001.86
2021-09-22 20:47:00,,0831.9,5.00,0.00,29.5,28.1,00.0,38.5,31.3,10.2,0000.0,0009.30,0002.70,0001.86
2021-09-22 20:48:00,,0831.9,4.99,0.00,29.5,28.3,00.0,38.5,31.3,10.4,0000.0,0009.13,0002.63,0001.86
2021-09-22 20:49:00,,0831.9,5.00,0.00,29.5,28.5,00.0,38.5,31.4,10.4,0000.0,0009.10,0002.61,0001.85
2021-09-22 20:50:00,,0831.9,5.00,0.00,29.6,28.7,00.0,38.6,31.4,10.2,0000.0,0009.09,0002.59,0001.83
2021-09-22 20:51:00,,0831.8,5.00,0.00,29.6,28.8,00.0,38.6,31.5,10.5,0000.0,0009.17,0002.59,0001.81
2021-09-22 20:52:00,,0831.7,5.00,0.00,29.7,28.9,00.0,38.6,31.6,10.3,0000.0,0009.14,0002.60,0001.80
2021-09-22 20:53:00,,0831.8,5.00,0.00,29.7,29.0,00.0,38.6,31.7,10.4,0000.0,0008.96,0002.65,0001.81
2021-09-22 20:54:00,,0831.7,5.01,0.00,29.8,28.2,00.0,38.7,31.4,10.3,0000.0,0008.89,0002.64,0001.82
2021-09-22 20:55:00,,0831.7,5.00,0.00,29.6,26.3,00.0,38.6,30.9,10.3,0000.0,0008.19,0002.68,0001.83
2021-09-22 20:56:00,,0831.7,5.01,0.00,29.5,25.9,00.0,38.6,30.8,10.6,0000.0,0007.07,0002.71,0001.84
2021-09-22 20:57:00,,0831.8,4.99,0.00,29.4,26.3,00.0,38.6,30.9,10.8,0000.0,0005.91,0002.72,0001.84
2021-09-22 20:58:00,,0831.7,5.01,0.00,29.4,26.7,00.0,38.5,30.9,10.9,0000.0,0007.15,0002.73,0001.84
2021-09-22 20:59:00,,0831.7,4.98,0.00,29.4,27.2,00.0,38.5,31.0,10.6,0000.0,0007.65,0002.76,0001.83
